Location: Nowy Sacz
(49.6330°N, 20.7170°E)
Time: 22:24:43
(UTC+01:00)

ISS - Visible Passes

Search period start: 30 November 2022 00:00
Search period end: 10 December 2022 00:00
Orbit: 415 x 420 km, 51.6° (Epoch: 30 November)

Date Brightness Start Highest point End Pass type
(mag) Time Alt. Az. Time Alt. Az. Time Alt. Az.
30 Nov -3.7 17:04:13 10° WNW 17:07:34 64° N 17:09:13 27° E visible
30 Nov -0.9 18:41:04 10° WNW 18:42:09 19° W 18:42:09 19° W visible
01 Dec -3.6 16:16:11 10° WNW 16:19:30 59° N 16:22:49 10° E visible
01 Dec -3.5 17:53:01 10° WNW 17:56:13 67° SW 17:56:13 67° SW visible
02 Dec -3.8 17:05:01 10° WNW 17:08:22 89° SW 17:10:22 22° ESE visible
02 Dec -0.9 18:42:06 10° W 18:43:20 17° WSW 18:43:20 17° WSW visible
03 Dec -3.8 16:16:59 10° WNW 16:20:21 74° NNE 16:23:41 10° E visible
03 Dec -2.4 17:53:54 10° W 17:56:58 34° SSW 17:57:38 31° S visible
04 Dec -2.9 17:05:48 10° WNW 17:09:03 50° SSW 17:12:07 11° SE visible
04 Dec -0.5 18:44:19 10° WSW 18:45:06 11° SW 18:45:06 11° SW visible
05 Dec -3.4 16:17:46 10° WNW 16:21:06 70° SSW 16:24:26 10° ESE visible
05 Dec -0.9 17:55:13 10° W 17:57:25 17° SW 17:59:37 10° S visible
06 Dec -1.4 17:06:49 10° W 17:09:36 24° SW 17:12:22 10° SSE visible
07 Dec -2.0 16:18:37 10° W 16:21:43 35° SSW 16:24:48 10° SE visible
08 Dec -0.3 17:08:53 10° WSW 17:09:57 11° SW 17:11:01 10° SSW visible
09 Dec -0.6 16:19:55 10° W 16:22:10 17° SW 16:24:26 10° S visible
